sat.trackr.live / text

‹ back to catalog

2024-205D

NORAD 61897 · 2024-205D

PAYLOAD ACTIVE UNKNOWN

§ Identity

Operator
Country
PRC
Launch date
2024-11-11
Launch site
JSC
Launch vehicle
Mass (kg)
RCS (m²)

External: N2YO · Heavens-Above · Gunter

§ Orbital elements

Epoch: 2026-05-25T04:32:29.472000Z

Period
94.88 min
Inclination
97.4101°
Eccentricity
0.0013518
Mean motion
15.17709029 rev/d
Perigee alt
503.5 km
Apogee alt
522.1 km
Semi-major
6,890.9 km
B*
3.0338e-4
RAAN
217.1539°
Arg perigee
133.8093°
Mean anomaly
226.4261°
Rev number
8,479

§ Raw data

2024-205D1 61897U 24205D   26145.18923000  .00006065  00000+0  30338-3 0  99912 61897  97.4101 217.1539 0013518 133.8093 226.4261 15.17709029 84790

JSON: /api/v1/satellites/61897 · /tle

For live sub-satellite position, see the globe view (requires WebGL).

§ Visibility from observer

Set your observer location to see the next 7 days of passes ≥ 10°. The values pass through the URL so the page stays shareable.

No JS? Fill the form by hand. The geolocation button needs JavaScript.